Location: Pella
(41.4080°N, 92.9160°W)
Time: 10:26:41
(UTC-05:00)

Iridium 91 - Visible Passes

Search period start: 27 July 2016 00:00
Search period end: 06 August 2016 00:00
Orbit: 776 x 779 km, 86.4° (Epoch: 26 July)

Date Brightness Start Highest point End Pass type
(mag) Time Alt. Az. Time Alt. Az. Time Alt. Az.
27 Jul 7.5 21:32:30 10° NNW 21:37:01 31° W 21:41:32 10° SW visible
28 Jul 6.3 20:58:33 10° NNW 21:03:40 56° W 21:08:45 10° SSW visible
29 Jul 8.6 22:08:21 10° NW 22:10:07 12° WNW 22:11:53 10° W visible
30 Jul 8.1 21:33:03 10° NNW 21:36:57 22° W 21:40:51 10° SW visible
31 Jul 7.1 20:58:51 10° NNW 21:03:40 39° W 21:08:28 10° SSW visible
02 Aug 8.4 21:33:56 10° NW 21:36:50 15° WNW 21:39:44 10° WSW visible
03 Aug 7.9 20:59:17 10° NNW 21:03:37 27° W 21:07:57 10° SW visible
05 Aug 9.0 21:36:17 10° WNW 21:36:40 10° WNW 21:37:04 10° W visible
